Regional Weather Roundup
Issued by NWS

Home | Current Version | Previous Version | Text Only | Print | Product List | Glossary Off
Versions: 1 2 3 4 5 6 7 8 9 10 11 12 13 14 15 16 17 18 19 20 21 22 23 24 25 26 27

000
ASUS45 KSLC 260510
RWRUT

UTAH REGIONAL WEATHER ROUNDUP
NATIONAL WEATHER SERVICE SALT LAKE CITY UT
1000 PM MST SAT FEB 25 2017

UTZ001>011-023>025-260600-

NORTHERN UTAH

CITY           SKY/WX    TMP DP  RH WIND       PRES   REMARKS
BRIGHAM CITY     N/A     27  19  72 CALM      29.99S
HILL AFB       PTCLDY    22  15  74 S9        29.96F WCI  12
LOGAN          CLEAR     19  13  77 CALM      29.99R
OGDEN          CLEAR     24  18  77 S6        29.97S WCI  17
SALT LAKE CITY PTCLDY    27  20  75 SE5       29.99S WCI  22
TOOELE VALLEY  CLEAR     21  18  86 S6        30.00S WCI  14
WENDOVER       CLEAR     25  14  63 CALM      29.99R
HEBER CITY     CLEAR      7   1  78 E3        29.95R
WEST JORDAN    CLEAR     27  22  82 SW7       29.99R WCI  19

$$

UTZ011>015-024>027-260600-

CENTRAL/NORTHEAST UTAH

CITY           SKY/WX    TMP DP  RH WIND       PRES   REMARKS
PROVO AIRPORT  CLEAR     19  14  81 SE6       30.01R WCI  11
MOAB/CANYONLAN CLOUDY    34  15  46 W8        29.92R WCI  27
DELTA          MOCLDY    27  19  74 N3        29.98R
PRICE          CLEAR     22  11  62 NW5       29.91R WCI  16
RICHFIELD      CLOUDY    27  27 100 CALM      30.00R FOG
ROOSEVELT      PTCLDY    23  14  68 W9        29.95S WCI  13
VERNAL         CLOUDY    12   6  77 W7        29.93S WCI   1

$$

UTZ013>016-019>022-027-260600-

SOUTHERN UTAH

CITY           SKY/WX    TMP DP  RH WIND       PRES   REMARKS
BRYCE CANYON   CLEAR     11   6  81 W3        29.88R
CEDAR CITY     CLOUDY    28  23  81 N9        29.92R WCI  19
MILFORD        CLOUDY    28  24  85 NW8       29.96R WCI  20
ST GEORGE      CLEAR     40  20  44 NE3       29.96R
HANKSVILLE     CLOUDY    36  12  38 CALM      29.96R
KANAB          CLEAR     30  19  64 W2        29.97S
BLANDING       MOCLDY    28  14  57 N6        29.95S WCI  21

$$

REGIONAL REPORTS     COLORADO/ARIZONA

CITY           SKY/WX    TMP DP  RH WIND       PRES   REMARKS
CRAIG, CO      CLOUDY    16  10  77 CALM      29.89R
GRAND JUNCTION CLOUDY    32  11  41 W3        29.92R
RIFLE, CO      CLOUDY    27  13  55 W3        29.91R
MONTROSE, CO   CLOUDY    29   8  41 NW8       29.94R WCI  21
CORTEZ, CO     CLOUDY    29  15  56 CALM      29.88F
COLORADO CITY    N/A     32  21  64 NW3       29.96R
PAGE, AZ       PTCLDY    43   5  20 W9G18     29.90S
GRAND CANYON   CLOUDY    32  16  51 SW13      29.95R WCI  22
KINGMAN, AZ    CLOUDY    43  12  28 CALM      29.96R
FLAGSTAFF, AZ  FLURRIES  30  15  53 SW16G26   29.96S WCI  19

$$

REGIONAL REPORTS    NEVADA/IDAHO/WYOMING

CITY           SKY/WX    TMP DP  RH WIND       PRES   REMARKS
LAS VEGAS, NV  MOCLDY    49  18  29 CALM      29.92R
ELY, NY        CLEAR     13  10  88 S10       29.94R WCI   0
ELKO, NV       CLEAR     23  15  71 N3        29.97R
POCATELLO, ID  CLEAR     20   8  60 S14       29.95S WCI   7
BURLEY, ID     CLEAR     23  12  62 SW10      29.96S WCI  12
FORT BRIDGER,    N/A     10   8  95 W15       29.88S WCI  -7
EVANSTON, WY   CLEAR      5   0  79 W13       29.87S WCI -12
ROCK SPRINGS,  CLEAR     10   4  76 W22       29.83S WCI -10
KEMMERER, WY   LGT SNOW   1  -4  78 SW8       29.83S WCI -12

$$




USA.gov is the U.S. government's official web portal to all federal, state and local government web resources and services.